Orbital Elements
Epoch 2013 Dec. 14.0 TT = JDT 2456640.5
T 2013 Dec. 22.73330 TT MPCW
q 0.8118217 (2000.0) P Q
z +0.0019607 Peri. 67.16669 -0.25259491 -0.46477067
Node 70.71117 +0.12869323 -0.88542378
e 0.9984083 Incl. 64.04102 +0.95897542 -0.00359827
From 3555 observations 2013 Sept. 7-2014 Sept. 14, mean residual 0".7.
Nongravitational parameters A1 = +0.51, A2 = -0.3037.
|